User: anonymous   Login
Location: Theydon Bois
(51.6750°N, 0.1050°E)
Time: 22:03:29
(UTC+00:00)
Language:

Cosmos 2154 Rocket - Orbit

View from above orbital plane
View from above orbital plane
View from above satellite
View from above satellite

Ground track
Ground track

The orbit data is extracted from the following two-line orbital elements,

1 21667U 91059B   18055.28137365 +.00000070 +00000-0 +57694-4 0  9992
2 21667 082.9088 181.4028 0019502 270.8424 111.8726 13.75100187330079
Epoch (UTC): 24 February 2018 06:45:10
Eccentricity: 0.0019502
inclination: 82.9088°
perigee height: 967 km
apogee height: 995 km
right ascension of ascending node: 181.4028°
argument of perigee: 270.8424°
revolutions per day: 13.75100187
mean anomaly at epoch: 111.8726°
orbit number at epoch: 33007

The dashed part of the orbit path shows where the satellite is in the earth's shadow,  

DLR